Location: Unspecified
(52.0000°N, 4.4000°E)
Time: 21:07:30
(UTC+00:00)

Cosmos 1238 Rocket - Pass Details

Date: 14 May 2025
Orbit: 356 x 778 km, 82.9° (Epoch: 15 June)

Event Time Altitude Azimuth Distance (km) Brightness Sun altitude
Exits shadow 21:13:21 16° 115° (ESE) 1,469 4.5 -12.4°
Maximum altitude 21:14:42 18° 89° (E) 1,308 4.4 -12.5°
Drops below altitude 10° 21:17:16 10° 44° (NE) 1,675 5.4 -12.7°
Sets 21:19:41 0° 25° (NNE) 2,480 6.6 -12.9°
